Back to catalog

STARLINK-11657

AliveCommunicationsVLEO
NORAD 63558·PAYLOAD·🇺🇸 United States

Launched Apr 13, 2025 from Cape Canaveral Space Force Station

Loading…

Next Passes (next 24 hours)

TLE

FreshSource: CelesTrak SupGP

Epoch: Sep 14, 2026, 15:02 UTC

1 63558C 25075L   26257.62687500  .00030889  00000+0  23993-3 0  2575
2 63558  43.0005  95.0342 0001677 255.7198  66.0153 15.70822029    10

Track STARLINK-11657 in real time with AllMySat

Download on the App Store